Wind_Speed
20 19 17 17 18 17 17 14 12 11 11 10 8 5 4 4 6 6 6 6 6 6 6 6 6 6 7 6 4 5 5 5 5 5 5 4 4 4 4 4 4 4 4 4
20 19 18 18 19 18 18 17 15 14 14 14 12 9 7 6 6 6 6 5 4 4 5 6 6 5 5 5 4 3 3 3 3 3 3 3 3 4 4 3 3 3 3 4
20 18 19 20 20 20 19 18 17 17 17 16 15 12 10 9 7 7 7 6 5 5 5 6 5 5 4 5 4 3 2 2 1 1 1 1 1 3 3 2 2 3 4 4
21 21 21 21 21 21 20 19 18 19 19 19 18 16 12 11 10 9 9 9 8 8 7 7 6 5 5 6 5 4 3 2 2 1 1 1 2 2 2 3 3 4 4 4
21 22 23 22 22 22 21 22 21 21 21 21 19 18 13 12 12 10 10 10 10 9 9 8 7 7 7 7 6 6 4 4 4 4 3 3 4 4 4 4 4 5 6 6
21 22 23 23 23 24 23 24 24 23 23 22 20 20 17 14 14 13 12 12 12 11 9 8 7 7 8 8 7 7 6 5 5 5 5 5 6 5 5 5 6 7 7 8
22 23 23 23 24 24 24 25 25 25 25 23 21 22 20 17 17 15 14 13 13 11 10 9 8 8 9 9 9 9 8 7 7 6 7 7 7 7 7 7 8 8 8 9
23 22 22 23 24 24 25 25 26 27 26 24 24 24 22 20 20 18 16 15 14 13 11 10 10 10 10 10 11 10 9 9 10 9 9 9 9 9 9 9 8 9 10 10
24 23 22 23 24 25 26 26 26 28 28 27 26 24 22 22 22 20 18 17 16 15 13 12 11 10 11 12 12 12 12 12 11 11 12 11 11 11 11 11 11 10 11 12
26 25 24 24 25 26 26 26 28 30 30 29 27 25 23 22 23 22 20 19 17 16 14 13 14 13 13 13 13 13 14 13 13 14 14 13 12 12 12 13 14 14 15 15
28 28 26 27 27 27 28 28 29 30 31 31 30 27 23 23 23 23 21 19 19 18 16 16 16 16 15 14 14 14 15 15 15 15 16 16 15 14 14 15 15 16 17 17
28 29 29 29 29 28 30 30 30 31 31 32 32 29 25 24 23 24 24 22 21 19 18 17 18 18 18 17 17 18 17 17 16 16 17 18 17 17 17 17 17 18 18 19
29 30 30 30 31 31 32 32 32 33 33 33 33 31 27 27 25 25 25 25 24 23 22 20 20 20 21 20 21 21 20 19 19 19 19 19 20 20 19 19 19 20 20 21
32 33 33 32 32 33 34 34 34 34 35 35 35 32 30 29 28 27 27 27 26 26 25 24 23 22 22 22 22 23 22 21 21 21 21 20 21 21 21 22 22 22 22 21
35 35 35 34 34 35 35 35 35 36 37 38 36 35 32 32 31 30 29 29 29 28 27 27 26 24 23 23 24 24 24 23 23 23 22 22 22 23 23 23 24 24 24 23
37 37 37 36 35 35 35 36 36 36 36 37 37 36 34 33 32 31 31 30 30 29 29 29 29 27 26 26 25 26 26 25 25 25 24 24 25 25 26 26 26 27 26 26
38 38 38 37 36 36 36 35 35 36 36 37 38 37 35 34 33 32 32 32 32 31 30 31 31 31 30 29 29 29 29 28 27 27 27 28 28 28 28 28 29 29 29 29
38 38 38 37 36 38 36 35 35 36 36 38 39 38 37 36 34 34 34 34 33 33 33 33 33 32 32 32 32 31 31 31 30 30 30 31 32 31 30 30 30 30 30 31
36 37 37 38 38 38 36 35 36 36 37 37 38 38 37 37 37 36 36 36 35 35 35 35 35 34 34 34 33 33 32 32 32 32 33 33 33 32 31 30 29 30 32 32
35 35 36 37 37 37 35 35 36 36 36 36 37 37 37 37 37 36 37 38 38 37 37 37 36 36 35 35 35 35 34 35 34 35 35 34 34 33 31 31 31 32 32 33
34 34 35 36 36 36 36 36 36 37 36 36 36 37 36 36 37 36 37 37 38 38 38 37 37 36 36 35 35 35 35 35 35 34 34 34 33 31 31 31 32 33 34 34
33 34 34 35 36 36 36 37 37 37 37 36 37 37 36 36 37 37 37 37 37 37 36 36 35 36 36 36 35 35 36 36 35 34 34 33 33 32 32 32 33 34 34 35
32 32 33 35 35 35 35 36 37 37 37 37 37 36 36 37 37 36 36 36 37 37 36 36 35 35 36 36 36 36 36 35 35 35 34 35 34 34 34 34 34 35 35 35
33 33 34 34 33 34 35 36 37 37 37 37 37 37 37 37 36 36 36 36 36 36 36 36 35 35 35 36 36 36 36 36 36 35 35 35 35 35 35 35 36 37 37 37
31 33 33 34 34 35 35 35 36 37 38 38 38 37 37 37 37 37 37 37 37 37 36 36 36 36 36 36 36 36 37 36 35 35 36 36 36 36 37 38 38 39 39 39
30 32 32 32 33 34 34 35 36 37 37 37 36 37 37 37 37 37 37 36 36 36 36 35 35 36 37 36 35 35 34 34 34 34 34 36 37 37 38 39 39 40 41 40
Wind_Direction
236 235 235 234 233 231 230 231 234 237 249 258 264 278 295 321 336 340 350 359 13 18 21 21 18 18 14 21 34 53 55 59 66 76 88 98 108 119 127 131 140 151 169 182
235 234 234 233 232 232 231 231 234 242 246 254 262 270 278 295 311 315 323 334 340 351 359 9 10 4 1 1 2 33 43 39 48 66 72 78 111 131 139 147 161 176 188 201
234 233 233 234 234 236 235 235 239 244 245 253 259 263 268 275 286 294 300 309 309 313 322 330 341 340 339 336 344 355 5 354 1 55 61 47 116 160 170 182 191 203 210 215
232 232 235 236 236 237 236 237 240 243 247 251 257 262 262 269 276 284 291 293 295 301 303 311 315 310 309 309 317 325 322 304 285 288 274 262 260 229 224 224 229 230 228 231
234 233 236 238 238 238 236 238 243 246 249 252 256 263 265 268 275 281 286 291 289 295 296 300 302 295 291 293 298 304 302 292 271 269 275 272 270 261 247 249 249 246 240 240
234 235 237 238 237 237 237 240 245 248 250 253 256 262 266 269 271 275 280 288 292 291 285 288 289 290 288 288 289 291 292 279 260 258 262 268 266 260 255 262 259 251 247 248
236 238 240 240 237 237 238 241 245 248 251 257 259 260 264 267 268 270 276 281 290 287 278 277 279 284 288 291 290 285 283 282 267 263 265 265 268 267 263 264 264 261 259 258
236 239 240 241 241 241 242 243 247 252 255 259 261 263 264 265 265 268 271 275 281 281 277 277 272 277 281 283 283 278 274 276 270 269 272 264 268 268 265 265 269 269 265 264
238 239 240 243 243 243 244 244 247 253 257 260 261 265 266 263 262 265 267 270 275 276 276 277 275 277 277 277 277 275 269 273 271 267 273 268 264 264 263 264 267 269 269 264
241 239 238 240 242 243 244 246 248 251 256 260 263 265 268 263 262 265 264 266 271 275 275 274 276 278 280 279 273 273 266 269 272 271 272 269 263 264 264 265 264 265 267 267
245 243 238 239 241 243 244 245 250 254 257 261 264 266 268 264 262 260 260 262 265 269 271 271 272 275 276 277 274 275 273 275 279 279 276 270 264 264 266 268 268 267 269 271
250 248 244 242 244 246 246 248 251 254 258 261 264 266 267 266 264 262 261 261 259 261 264 268 270 271 272 274 275 276 276 276 280 281 282 274 265 264 265 268 269 268 271 274
254 253 251 246 245 246 248 252 254 255 258 261 264 267 265 265 265 264 265 263 260 259 261 265 267 269 269 272 274 274 273 274 277 280 281 281 269 266 266 267 269 269 269 270
255 254 254 253 252 251 252 252 253 255 257 261 264 267 266 264 266 265 264 262 259 259 263 265 267 272 270 272 273 273 273 275 276 278 278 280 275 269 267 267 267 268 269 270
255 256 256 256 255 254 254 253 254 256 259 261 264 266 266 265 265 264 265 264 261 260 262 266 269 269 270 272 273 272 272 273 274 274 275 275 271 269 268 268 268 268 268 269
254 256 257 257 256 254 253 254 256 257 258 260 263 264 265 264 263 262 264 265 264 264 265 268 270 270 270 270 269 268 268 269 270 271 271 271 271 269 270 268 269 268 267 268
252 254 255 255 254 254 254 255 256 257 258 259 261 263 265 266 264 263 263 264 266 265 266 268 271 270 270 268 268 269 267 266 268 269 269 270 272 271 271 270 270 270 270 270
252 252 253 254 253 254 257 256 256 257 258 259 260 263 264 264 263 263 264 263 264 265 266 267 270 270 270 268 267 269 269 268 268 269 269 269 270 270 271 270 271 272 272 272
252 253 253 253 254 255 256 257 257 258 260 260 260 261 261 262 262 262 262 262 263 264 265 267 268 268 268 268 269 271 270 270 269 268 269 269 270 270 269 269 271 272 272 273
252 253 254 254 255 255 255 256 258 260 261 260 260 260 261 262 262 262 263 264 264 265 266 267 267 268 268 268 268 269 269 270 271 271 270 270 269 268 269 270 270 272 274 274
253 253 255 256 256 257 257 258 260 261 262 261 261 261 261 260 261 262 263 264 264 266 267 267 267 267 267 268 268 268 268 268 269 270 270 268 266 267 269 272 273 273 275 276
257 255 256 257 259 258 259 261 261 262 262 263 263 262 261 261 261 262 263 264 264 266 266 266 266 266 266 266 266 265 266 267 267 267 268 267 267 268 269 272 274 275 276 276
258 258 258 259 259 259 261 262 262 262 263 263 263 262 262 263 263 263 264 264 264 265 265 264 265 266 266 265 265 265 266 267 267 267 267 267 268 269 271 272 274 275 276 277
258 258 260 262 262 260 261 261 262 263 263 263 263 263 263 263 263 263 263 264 264 265 265 264 265 266 266 266 266 266 266 267 267 266 265 266 268 269 271 273 274 276 277 278
261 260 261 263 263 262 262 262 263 263 263 263 263 263 262 262 263 263 263 264 264 263 263 264 265 265 266 267 268 268 267 267 266 265 266 267 268 269 271 273 274 275 276 277
262 260 261 263 263 263 262 261 262 262 263 263 263 263 262 263 264 264 264 264 263 263 263 263 264 265 265 267 268 269 271 268 266 266 266 267 269 270 271 272 274 275 277 278
Height
5877 5880 5882 5884 5886 5888 5889 5891 5892 5893 5892 5892 5893 5893 5893 5893 5893 5893 5893 5892 5891 5890 5889 5888 5886 5886 5885 5884 5883 5882 5882 5881 5881 5880 5880 5880 5880 5881 5881 5881 5882 5882 5883 5883
5875 5877 5880 5881 5883 5885 5886 5888 5890 5890 5890 5890 5891 5891 5892 5892 5892 5892 5892 5892 5891 5890 5889 5888 5887 5886 5885 5884 5884 5883 5882 5882 5882 5881 5881 5880 5880 5881 5881 5882 5882 5883 5883 5883
5872 5876 5876 5878 5880 5882 5884 5886 5887 5887 5887 5888 5889 5889 5890 5891 5891 5891 5890 5890 5890 5890 5889 5888 5887 5886 5886 5885 5884 5883 5883 5882 5882 5881 5882 5881 5881 5881 5882 5882 5882 5883 5883 5883
5868 5871 5873 5874 5877 5879 5881 5883 5883 5884 5884 5885 5886 5886 5888 5888 5888 5889 5889 5889 5889 5889 5888 5887 5887 5886 5885 5884 5883 5883 5882 5882 5882 5882 5881 5881 5881 5881 5881 5881 5882 5882 5882 5882
5865 5868 5869 5871 5873 5875 5877 5879 5879 5880 5880 5881 5882 5883 5885 5885 5886 5886 5887 5887 5887 5887 5886 5886 5885 5885 5884 5883 5883 5882 5881 5881 5880 5880 5880 5880 5881 5881 5881 5881 5881 5881 5881 5881
5862 5863 5865 5867 5870 5871 5873 5874 5875 5876 5876 5878 5879 5880 5881 5882 5883 5883 5884 5884 5884 5884 5884 5884 5883 5883 5882 5882 5881 5880 5880 5879 5879 5879 5878 5879 5880 5879 5879 5879 5879 5879 5879 5879
5857 5859 5861 5863 5865 5867 5869 5870 5871 5871 5872 5874 5875 5875 5877 5879 5879 5880 5880 5881 5881 5881 5881 5881 5881 5881 5880 5880 5879 5879 5878 5878 5877 5877 5877 5877 5878 5878 5878 5877 5877 5877 5877 5877
5853 5856 5858 5859 5861 5863 5864 5866 5867 5868 5868 5870 5870 5870 5874 5875 5875 5876 5877 5877 5878 5878 5878 5878 5878 5877 5877 5877 5876 5876 5876 5876 5875 5875 5875 5875 5875 5876 5875 5875 5875 5875 5875 5875
5848 5851 5853 5855 5856 5858 5859 5860 5862 5863 5863 5863 5864 5866 5868 5870 5870 5871 5873 5873 5874 5874 5874 5874 5874 5873 5873 5873 5873 5873 5873 5872 5872 5872 5872 5872 5872 5872 5872 5872 5872 5872 5872 5872
5843 5846 5848 5849 5851 5852 5854 5855 5856 5856 5857 5857 5859 5861 5863 5864 5865 5867 5868 5869 5869 5870 5870 5870 5870 5870 5869 5869 5869 5869 5869 5869 5869 5868 5868 5868 5868 5868 5868 5869 5869 5869 5869 5868
5837 5839 5842 5843 5844 5846 5847 5849 5849 5850 5851 5852 5852 5857 5858 5858 5859 5861 5862 5863 5864 5865 5865 5865 5866 5865 5865 5865 5865 5865 5865 5865 5865 5865 5864 5864 5864 5864 5864 5864 5864 5864 5864 5864
5830 5832 5834 5836 5838 5839 5840 5841 5843 5844 5844 5845 5846 5851 5852 5852 5853 5854 5856 5857 5858 5859 5859 5860 5861 5861 5861 5861 5860 5860 5860 5860 5860 5860 5859 5859 5859 5859 5859 5859 5859 5859 5859 5859
5822 5824 5826 5829 5832 5832 5832 5834 5835 5836 5837 5837 5839 5844 5845 5846 5847 5848 5849 5850 5851 5852 5854 5855 5855 5856 5856 5855 5855 5855 5855 5855 5854 5853 5853 5853 5852 5853 5853 5853 5853 5853 5853 5852
5814 5816 5818 5821 5822 5824 5825 5826 5827 5829 5829 5830 5832 5834 5837 5838 5839 5841 5842 5843 5844 5846 5847 5848 5849 5849 5849 5850 5850 5849 5849 5849 5849 5848 5848 5847 5846 5846 5847 5847 5847 5847 5847 5847
5805 5807 5809 5811 5813 5814 5816 5818 5820 5821 5821 5822 5824 5826 5828 5829 5831 5833 5834 5835 5837 5838 5840 5841 5842 5842 5843 5843 5843 5842 5842 5842 5842 5842 5842 5841 5841 5840 5840 5840 5840 5840 5840 5840
5796 5798 5799 5802 5804 5805 5807 5809 5811 5812 5813 5814 5816 5818 5819 5820 5822 5824 5825 5827 5828 5830 5832 5833 5834 5834 5835 5835 5835 5835 5835 5835 5835 5835 5835 5835 5834 5834 5834 5833 5833 5832 5833 5833
5787 5789 5790 5792 5795 5796 5798 5801 5802 5804 5805 5806 5807 5810 5811 5812 5814 5815 5817 5818 5820 5821 5823 5824 5824 5825 5826 5827 5827 5828 5827 5827 5827 5827 5828 5827 5827 5826 5826 5826 5825 5825 5824 5824
5778 5780 5781 5783 5786 5787 5792 5793 5794 5795 5796 5797 5799 5800 5802 5804 5805 5807 5808 5809 5811 5812 5813 5814 5815 5816 5817 5818 5818 5818 5818 5818 5819 5818 5818 5818 5818 5817 5817 5817 5817 5816 5816 5816
5769 5770 5772 5774 5775 5778 5782 5783 5784 5785 5787 5789 5789 5791 5793 5794 5795 5797 5799 5800 5801 5802 5803 5805 5806 5806 5807 5808 5808 5809 5809 5809 5809 5809 5809 5809 5809 5808 5808 5808 5808 5807 5807 5807
5759 5761 5763 5764 5766 5768 5773 5774 5774 5776 5777 5779 5780 5781 5783 5784 5786 5788 5789 5789 5791 5792 5793 5794 5795 5796 5797 5798 5798 5799 5799 5799 5799 5799 5799 5798 5799 5799 5799 5799 5798 5798 5798 5797
5750 5751 5753 5755 5756 5758 5762 5764 5765 5767 5769 5769 5770 5771 5773 5774 5776 5777 5778 5779 5780 5781 5782 5783 5784 5785 5786 5787 5788 5788 5789 5789 5790 5789 5789 5789 5789 5789 5790 5789 5788 5788 5789 5788
5741 5743 5744 5745 5747 5751 5752 5753 5755 5756 5757 5758 5759 5761 5762 5763 5765 5766 5767 5768 5769 5770 5771 5772 5773 5774 5775 5776 5777 5777 5778 5778 5779 5779 5780 5779 5780 5780 5780 5780 5779 5779 5779 5778
5733 5735 5735 5737 5740 5741 5742 5743 5744 5745 5746 5747 5748 5750 5751 5753 5754 5755 5757 5758 5759 5760 5761 5761 5762 5763 5764 5764 5765 5766 5767 5767 5767 5768 5769 5769 5770 5770 5770 5770 5770 5769 5768 5767
5724 5725 5726 5727 5729 5731 5732 5733 5734 5735 5736 5737 5738 5739 5740 5742 5743 5744 5746 5747 5747 5748 5749 5750 5751 5753 5753 5754 5754 5755 5755 5756 5757 5757 5758 5758 5758 5759 5760 5760 5759 5759 5758 5757
5715 5716 5717 5718 5720 5720 5722 5723 5724 5724 5725 5726 5727 5727 5729 5730 5732 5733 5735 5736 5737 5738 5739 5740 5741 5742 5743 5743 5744 5744 5744 5745 5745 5746 5747 5747 5748 5748 5748 5748 5748 5747 5747 5746
5706 5706 5707 5709 5710 5710 5712 5712 5713 5713 5714 5715 5716 5717 5718 5719 5720 5722 5724 5725 5726 5727 5728 5730 5730 5731 5732 5733 5733 5734 5734 5734 5734 5735 5735 5736 5737 5737 5737 5737 5736 5735 5735 5734